Location: ?????
(31.8092°N, 35.2590°E)
Time: 17:20:12
(UTC+00:00)

Cosmos 968 Rocket - Pass Details

Date: 20 June 2021
Orbit: 740 x 771 km, 74.0° (Epoch: 04 August)

Event Time Altitude Azimuth Distance (km) Brightness Sun altitude
Rises 19:46:58 0° 346° (NNW) 3,184 7.8 -28.4°
Reaches altitude 10° 19:49:20 10° 349° (N) 2,260 6.8 -28.7°
Enters shadow 19:53:31 56° 17° (NNE) 882 3.9 -29.1°
